Temperature
20 20 20 20 20 20 19 19 19 19 19 19 19 19 19 19 19 19 19 19 19 19 19 19 19 19 19 19 19 19 19 19 19 19 19 19 18 18 18 18 18 18 18
21 21 20 20 20 20 19 19 19 19 19 19 19 19 19 19 19 19 19 19 19 19 19 19 19 19 19 19 19 19 19 19 18 18 18 18 18 18 18 18 18 18 18
21 20 20 20 20 19 19 19 19 19 19 19 19 19 19 19 19 19 19 19 19 18 18 18 18 18 19 19 19 19 19 18 18 18 18 18 18 18 18 18 18 18 18
21 20 20 20 20 20 19 19 19 19 19 19 19 19 19 19 19 19 19 19 18 18 18 18 18 18 18 19 19 19 18 18 18 18 18 18 18 18 18 18 18 18 18
20 20 20 20 20 20 19 19 19 19 19 19 19 19 19 19 19 19 19 19 18 18 18 18 18 18 18 18 18 18 18 18 18 18 18 18 18 18 18 18 18 18 18
21 20 21 20 20 20 19 19 19 19 19 19 19 19 19 19 19 18 19 18 18 18 18 18 18 18 18 18 18 18 18 18 18 18 18 18 18 18 18 18 18 18 18
21 20 20 20 20 20 20 19 19 19 19 19 19 19 19 19 19 18 18 18 18 18 18 18 18 18 18 18 18 18 18 18 18 18 18 18 18 18 18 18 18 18 18
21 21 20 20 20 20 20 19 19 19 19 19 19 19 19 18 18 18 18 18 18 18 18 18 18 18 18 18 18 18 18 18 18 18 18 18 18 18 18 18 18 18 18
21 20 20 20 20 20 19 19 19 19 19 19 19 19 19 18 18 18 18 18 18 18 18 18 18 18 18 18 18 18 18 18 18 18 18 18 18 18 18 18 18 18 18
21 21 20 20 20 19 19 19 19 19 19 19 19 19 19 18 18 18 18 18 18 18 18 18 18 18 18 18 18 18 18 18 18 18 18 18 18 18 18 18 18 18 18
21 21 20 20 20 19 19 19 19 19 19 19 19 19 18 18 18 18 18 18 18 18 18 18 18 18 18 18 18 18 18 18 18 18 18 18 18 18 18 18 18 18 18
21 21 20 20 20 20 19 19 19 19 18 18 18 18 18 18 18 18 18 18 18 18 18 18 18 18 18 18 18 18 18 18 18 18 18 18 18 18 18 18 18 18 18
21 21 20 20 20 20 19 19 19 18 18 18 18 18 18 18 18 18 18 18 18 18 18 18 18 18 18 18 18 18 18 18 18 18 18 18 18 18 18 18 18 18 18
21 21 21 20 20 20 19 19 19 18 18 18 18 18 18 18 18 18 18 18 18 18 18 18 18 18 18 18 18 18 18 18 18 18 18 18 18 18 18 18 18 18 18
21 21 20 20 20 19 19 19 19 18 18 18 18 18 18 18 18 18 18 18 18 18 18 18 18 18 18 18 18 18 18 18 18 18 18 18 18 18 18 18 18 18 18
21 20 20 20 20 19 19 19 19 18 18 18 18 18 18 18 18 18 18 18 18 18 18 18 18 18 18 18 18 18 18 18 18 18 18 18 18 18 18 18 18 18 18
21 20 20 20 19 19 19 19 18 18 18 18 18 18 18 17 18 18 17 17 18 17 17 17 17 18 18 18 18 18 18 18 18 18 18 18 18 18 18 18 18 18 18
21 20 20 20 19 19 19 19 18 18 18 18 18 18 18 17 17 17 17 17 18 17 17 17 17 17 17 18 18 18 18 18 18 18 18 18 18 18 18 18 18 18 18
20 20 20 20 19 19 19 18 18 18 18 18 18 17 17 17 17 17 17 17 17 17 17 17 17 17 17 18 18 18 18 18 18 18 18 18 18 18 18 18 18 18 17
20 20 20 20 19 19 18 18 18 18 18 18 17 17 17 17 17 17 17 17 17 17 17 17 17 17 17 17 17 18 18 18 18 18 18 18 18 18 17 17 17 17 17
20 20 20 19 19 19 18 18 18 18 18 18 17 17 17 17 17 17 17 17 17 17 17 17 17 17 17 17 17 18 18 18 18 18 18 18 18 17 17 17 17 17 17
20 20 19 19 19 19 18 18 18 18 18 18 17 17 17 17 17 17 17 17 17 17 17 17 17 17 17 17 17 17 17 18 18 18 18 18 18 18 17 17 17 17 17
21 20 20 19 19 19 19 18 18 18 18 18 17 17 17 17 17 17 17 17 17 17 17 17 17 17 17 17 17 17 17 17 17 18 18 18 17 17 17 17 17 17 17
21 20 20 19 19 19 19 18 18 18 18 18 17 17 17 17 17 17 17 17 17 17 17 17 17 16 17 17 17 17 17 17 17 17 17 17 17 17 17 17 17 17 17
21 20 20 19 19 19 18 18 18 18 17 17 17 17 17 17 17 17 17 17 17 17 17 16 17 16 17 17 17 17 17 17 17 17 17 17 17 17 17 17 17 17 17
21 21 20 19 19 19 18 18 18 18 17 17 17 17 17 17 17 17 17 17 17 17 17 17 17 17 17 17 17 17 17 17 17 17 17 17 17 17 17 17 17 16 16
Wind_Speed
11 12 13 13 12 11 11 11 10 10 11 11 10 10 10 9 9 8 8 8 8 8 9 8 8 7 7 6 6 7 7 6 7 8 9 8 8 8 8 8 8 9 11
13 13 14 13 12 11 11 11 11 10 10 10 10 9 9 8 8 8 7 7 7 7 7 7 7 7 7 6 5 6 6 5 6 7 7 7 7 6 7 6 7 9 10
14 13 13 13 12 11 11 10 10 9 9 9 9 8 8 7 7 7 7 6 6 6 6 6 6 6 6 5 5 5 5 5 5 5 6 6 7 7 7 7 8 9 9
13 13 13 13 12 11 10 10 9 9 9 8 8 7 6 6 6 6 6 5 5 6 6 6 6 5 5 4 5 5 4 5 5 5 6 5 7 8 8 8 8 8 8
14 14 15 14 12 11 10 9 8 8 8 8 7 6 5 5 4 5 5 5 5 5 5 5 6 6 5 4 4 4 5 5 5 6 4 4 7 9 8 8 8 7 8
14 15 15 14 12 11 10 9 8 8 7 7 6 6 5 4 4 4 4 4 4 5 5 5 5 6 5 5 4 4 5 5 6 6 4 5 9 10 9 8 8 8 8
14 15 15 14 13 11 9 8 8 7 6 6 5 5 5 4 4 4 4 4 4 4 5 5 5 6 6 6 6 5 5 6 8 5 4 7 9 11 9 8 8 8 8
14 14 14 14 13 11 10 9 7 6 6 5 5 5 4 5 5 5 5 4 4 4 5 5 5 6 6 6 6 7 7 8 8 5 5 8 12 12 10 9 8 8 8
14 12 11 11 11 11 10 9 7 6 5 4 4 4 5 5 5 6 6 5 5 5 5 5 6 7 8 7 8 8 8 9 8 5 4 8 12 13 12 10 9 8 8
11 10 10 10 9 9 9 9 8 7 6 5 5 5 6 6 7 7 7 7 7 6 6 7 6 6 8 9 9 9 9 9 8 6 3 8 13 13 12 11 10 9 9
8 7 7 7 7 8 8 9 9 8 6 5 6 6 6 5 6 7 7 8 8 8 8 8 8 8 9 10 11 11 9 8 7 5 4 10 13 13 13 11 10 10 10
6 6 5 5 5 4 5 7 6 5 5 4 3 4 4 3 3 3 6 8 9 9 9 9 10 10 10 8 10 11 8 8 7 5 6 12 13 13 12 11 10 10 10
5 4 5 6 4 4 4 4 2 2 4 4 3 2 2 3 3 3 3 5 6 7 7 6 7 6 6 5 4 6 8 6 4 3 7 13 13 13 12 11 10 10 10
6 5 6 6 5 5 4 2 2 2 2 2 3 1 1 0 0 1 1 2 3 3 4 3 3 4 4 4 5 5 6 5 4 4 7 12 12 12 11 10 10 10 10
6 5 6 6 5 4 3 2 2 2 1 3 3 2 1 1 1 0 0 1 2 2 2 2 2 2 3 3 4 5 4 4 4 5 6 12 13 12 11 11 10 10 10
6 5 5 6 6 4 3 2 1 2 2 3 3 3 2 1 1 1 0 0 1 1 1 1 2 2 2 3 4 3 3 3 3 4 6 9 13 13 12 11 11 10 10
6 5 4 6 6 4 3 2 2 2 3 2 3 3 2 2 2 1 1 0 1 2 1 1 1 1 2 3 3 3 3 3 3 3 5 7 9 12 13 12 12 11 10
6 5 3 4 6 4 3 1 2 2 2 2 3 3 3 2 2 1 1 1 1 2 1 0 1 1 2 2 2 2 2 2 4 4 5 6 7 8 11 13 12 11 11
6 5 4 3 5 4 3 2 2 2 3 2 3 3 2 2 2 1 1 1 1 1 1 1 0 1 2 2 2 3 3 3 3 5 5 5 6 7 7 10 12 12 11
7 6 5 4 3 3 2 2 1 2 2 2 2 2 2 1 2 2 1 1 1 1 1 1 1 1 2 2 3 2 2 2 2 3 4 4 5 6 7 8 9 8 10
8 6 5 4 3 2 1 1 1 1 1 1 2 2 2 2 2 1 2 1 1 1 1 2 1 2 2 1 1 1 2 3 2 2 1 1 3 4 6 7 8 7 7
8 7 6 4 3 2 1 1 1 1 1 2 2 2 2 2 1 1 1 2 1 1 1 1 1 2 2 1 1 1 1 1 1 2 2 3 2 2 3 5 7 8 7
9 7 6 4 3 2 2 1 1 2 1 2 2 2 2 1 1 1 1 1 1 1 1 1 1 2 2 2 1 1 1 1 0 1 1 1 2 2 2 3 5 7 7
9 8 7 6 4 3 2 1 1 2 1 1 1 2 2 1 1 1 2 2 2 1 1 2 0 2 2 2 2 1 1 0 1 1 1 1 2 3 2 2 2 5 6
8 8 8 6 5 4 3 2 0 1 1 1 1 2 1 1 1 2 2 2 2 1 2 2 1 1 1 2 2 2 2 1 2 1 1 1 1 2 2 2 2 3 5
7 7 8 6 5 4 3 3 2 0 1 2 1 1 0 1 1 1 1 1 2 1 2 2 2 1 1 2 2 2 1 1 1 1 1 2 2 2 1 1 2 2 4
Wind_Direction
101 106 106 104 100 98 98 99 98 108 114 118 117 116 113 113 114 116 118 116 115 114 117 120 120 120 116 112 108 106 106 112 116 115 114 114 114 115 118 124 130 119 118
108 109 107 105 101 98 98 99 98 106 117 120 121 120 117 120 123 123 126 126 124 124 124 126 124 121 119 123 124 123 128 134 137 134 132 129 125 123 127 130 126 120 123
109 114 112 107 105 102 98 98 99 101 114 120 122 122 122 126 129 129 133 134 135 135 135 133 129 130 127 136 144 147 156 164 167 162 168 152 140 140 133 123 125 129 130
114 118 114 113 109 106 101 99 99 102 109 115 121 124 128 130 131 133 137 142 146 146 146 143 140 141 141 145 156 168 182 190 190 197 201 178 155 149 146 137 137 140 142
112 114 117 119 113 109 105 102 101 104 108 114 116 118 122 126 133 138 143 145 148 154 161 161 158 158 158 161 165 180 202 209 217 228 210 170 137 147 152 149 152 153 154
115 114 119 122 120 115 108 104 104 106 110 114 114 112 116 132 146 151 155 158 159 168 172 174 176 175 180 185 192 205 221 227 241 231 205 162 144 150 154 158 160 159 158
111 113 119 124 124 120 114 111 110 109 113 117 119 127 131 138 150 163 173 173 174 181 187 186 188 195 197 200 206 217 231 246 252 237 194 150 146 154 159 161 162 165 167
111 116 123 128 127 126 123 119 118 120 124 130 132 138 149 158 161 171 184 184 187 193 198 199 200 208 214 212 214 221 234 253 258 235 174 146 151 161 166 165 168 170 170
114 120 129 133 136 139 137 135 132 132 136 145 152 161 175 180 183 188 194 198 204 212 210 214 214 217 220 219 218 224 234 249 271 262 196 152 156 164 167 169 173 177 178
110 120 131 139 140 147 150 151 149 150 159 175 182 185 191 196 198 202 202 201 205 211 215 221 221 219 220 225 225 226 235 251 257 251 187 160 160 165 169 172 180 185 186
101 111 121 131 139 151 151 151 161 167 176 183 192 200 204 206 199 201 203 195 201 205 214 219 220 223 224 228 229 224 231 241 238 232 178 166 166 167 172 176 185 191 191
106 112 118 116 123 131 128 139 161 166 166 174 168 193 198 215 209 188 180 188 200 206 212 220 224 229 230 227 225 217 224 231 230 214 173 166 165 166 172 180 191 196 196
118 111 108 99 93 94 99 128 128 131 151 158 150 191 194 210 188 170 176 190 208 213 218 217 223 228 228 224 219 207 217 225 227 194 171 165 166 167 175 186 196 201 203
114 100 93 88 75 63 67 92 116 111 123 123 143 197 79 336 81 145 171 192 204 208 205 210 215 226 235 227 222 225 223 215 203 168 174 168 169 173 179 187 197 202 206
110 98 91 93 84 69 57 10 86 99 103 123 127 108 70 20 35 44 225 201 244 217 193 208 226 227 221 221 232 228 238 235 201 182 176 174 178 180 185 193 201 204 206
112 103 100 97 90 81 76 29 33 59 74 75 89 85 62 39 43 6 301 3 296 280 193 229 242 238 229 226 232 230 234 243 212 183 172 177 185 187 191 196 202 204 205
112 103 109 110 102 92 86 55 68 59 82 70 86 96 72 54 47 1 317 127 358 318 265 226 250 241 240 227 222 213 216 224 216 203 189 183 187 195 198 200 202 201 201
116 104 87 97 108 102 91 56 49 47 70 69 82 83 71 54 56 2 332 50 355 320 350 243 228 253 253 247 240 207 203 209 214 199 201 189 185 191 196 201 200 197 200
113 109 103 73 93 105 102 84 43 49 44 44 71 69 62 37 46 21 2 45 335 323 357 303 78 265 267 266 250 213 204 210 212 204 199 195 180 175 172 184 191 194 197
118 114 112 103 88 99 108 104 70 58 58 54 78 87 94 48 51 16 330 66 356 340 348 340 323 280 256 256 257 248 234 217 206 202 204 194 183 181 170 164 170 184 189
129 124 118 119 112 105 89 109 117 91 56 58 75 82 92 54 48 37 351 11 344 7 357 319 312 293 270 251 267 278 266 228 196 202 187 177 176 172 168 159 160 162 167
141 140 136 131 128 141 125 125 123 89 107 95 67 81 79 61 13 36 5 333 354 8 332 308 317 293 278 259 233 239 246 241 234 205 180 182 183 161 164 165 162 164 167
150 150 151 150 142 151 147 148 106 93 34 54 78 90 86 69 60 347 14 350 330 309 261 275 276 287 282 292 257 236 246 242 247 233 205 175 166 170 167 160 158 159 166
159 155 149 151 151 148 150 128 137 119 93 78 74 89 102 85 32 14 26 1 333 338 339 278 282 285 276 278 287 271 261 208 219 201 218 185 187 192 188 184 147 153 160
158 157 152 150 153 154 159 151 154 97 117 93 91 91 99 111 62 33 31 358 334 344 336 336 341 308 296 296 296 296 288 274 257 212 209 247 253 220 194 167 158 149 154
149 150 147 145 154 156 159 157 144 78 47 49 47 59 243 134 95 43 32 14 345 334 341 341 327 316 327 327 315 313 307 295 288 278 200 220 239 251 216 168 168 153 149
Height
1503 1502 1502 1503 1504 1504 1506 1506 1507 1508 1510 1512 1513 1515 1517 1518 1520 1521 1523 1524 1526 1527 1528 1529 1531 1532 1533 1534 1535 1537 1537 1539 1540 1540 1541 1542 1543 1544 1544 1545 1546 1547 1548
1503 1503 1504 1504 1505 1506 1507 1508 1509 1510 1512 1513 1515 1516 1518 1519 1521 1522 1524 1525 1526 1528 1529 1530 1531 1532 1534 1535 1536 1537 1538 1539 1540 1541 1542 1543 1543 1544 1545 1545 1546 1547 1548
1504 1504 1505 1506 1507 1508 1509 1509 1511 1512 1513 1514 1516 1517 1519 1520 1522 1523 1524 1526 1527 1528 1529 1531 1532 1533 1534 1535 1536 1537 1538 1539 1540 1541 1542 1543 1544 1544 1545 1546 1547 1548 1549
1505 1506 1506 1507 1508 1509 1510 1511 1512 1513 1514 1515 1517 1518 1520 1521 1522 1524 1525 1526 1527 1529 1530 1531 1532 1533 1534 1535 1536 1537 1539 1540 1541 1541 1543 1543 1544 1545 1545 1546 1547 1548 1549
1506 1507 1507 1508 1509 1510 1511 1512 1513 1514 1515 1516 1517 1519 1520 1521 1523 1524 1525 1526 1527 1529 1530 1531 1532 1533 1534 1535 1536 1537 1539 1540 1541 1542 1543 1544 1544 1545 1546 1546 1547 1548 1549
1508 1508 1508 1509 1510 1511 1512 1513 1514 1515 1516 1517 1518 1519 1520 1521 1523 1524 1525 1526 1527 1528 1529 1530 1531 1532 1534 1535 1536 1536 1538 1539 1540 1542 1542 1543 1544 1545 1545 1546 1547 1548 1549
1509 1509 1509 1510 1511 1512 1513 1514 1515 1516 1516 1517 1518 1519 1520 1522 1523 1523 1524 1525 1527 1528 1529 1530 1530 1532 1532 1534 1535 1536 1537 1538 1540 1541 1542 1543 1544 1544 1545 1546 1547 1548 1549
1509 1510 1511 1512 1512 1513 1514 1515 1515 1516 1517 1518 1519 1520 1520 1521 1522 1523 1524 1525 1526 1527 1528 1529 1530 1531 1532 1533 1534 1535 1536 1537 1538 1541 1541 1542 1543 1544 1545 1546 1546 1547 1548
1511 1511 1512 1513 1514 1514 1515 1516 1516 1517 1517 1518 1519 1519 1520 1521 1522 1523 1523 1524 1525 1526 1526 1527 1528 1529 1530 1531 1533 1533 1535 1536 1537 1539 1541 1541 1542 1543 1544 1545 1546 1547 1548
1513 1513 1513 1514 1514 1515 1516 1516 1517 1517 1518 1518 1518 1519 1520 1521 1522 1522 1523 1523 1524 1525 1526 1526 1527 1528 1529 1530 1531 1532 1534 1535 1537 1538 1539 1540 1541 1542 1543 1544 1545 1546 1547
1514 1515 1515 1515 1516 1516 1517 1517 1517 1518 1518 1518 1518 1519 1520 1521 1521 1522 1522 1522 1523 1524 1525 1526 1527 1528 1529 1529 1530 1531 1533 1534 1536 1537 1538 1539 1540 1541 1542 1543 1544 1545 1546
1515 1516 1516 1517 1517 1518 1518 1518 1518 1519 1518 1518 1518 1519 1520 1521 1521 1522 1522 1522 1522 1523 1524 1525 1526 1527 1528 1528 1529 1531 1532 1533 1535 1536 1537 1538 1539 1540 1541 1542 1543 1544 1545
1516 1517 1517 1517 1518 1518 1519 1519 1519 1519 1519 1519 1519 1520 1520 1521 1521 1521 1522 1522 1522 1523 1523 1524 1525 1526 1527 1528 1528 1529 1530 1532 1533 1534 1536 1537 1538 1539 1540 1540 1541 1542 1543
1517 1518 1518 1518 1518 1519 1519 1519 1519 1519 1520 1520 1520 1520 1520 1520 1521 1521 1522 1522 1523 1523 1523 1524 1525 1525 1526 1527 1527 1528 1530 1530 1532 1533 1534 1535 1536 1537 1538 1539 1539 1540 1541
1518 1518 1519 1519 1519 1519 1519 1519 1520 1520 1520 1520 1520 1520 1520 1520 1520 1520 1521 1522 1522 1523 1523 1523 1524 1525 1525 1526 1527 1528 1529 1529 1530 1531 1532 1533 1534 1535 1536 1537 1538 1538 1540
1518 1518 1519 1519 1519 1519 1519 1519 1519 1520 1520 1520 1520 1519 1519 1519 1519 1519 1520 1520 1521 1522 1522 1522 1523 1523 1524 1525 1525 1526 1527 1528 1528 1529 1530 1531 1532 1533 1534 1535 1536 1536 1537
1518 1518 1519 1519 1519 1519 1519 1519 1520 1520 1520 1520 1520 1519 1518 1518 1518 1519 1519 1519 1520 1520 1521 1521 1522 1522 1523 1523 1524 1525 1525 1526 1526 1527 1528 1529 1530 1531 1532 1533 1534 1534 1535
1517 1518 1519 1520 1519 1519 1519 1520 1520 1520 1520 1520 1519 1519 1518 1518 1518 1518 1519 1519 1519 1519 1519 1520 1520 1521 1522 1522 1523 1523 1524 1524 1525 1525 1526 1527 1528 1529 1530 1531 1531 1532 1533
1517 1518 1519 1519 1519 1519 1520 1520 1520 1520 1520 1520 1519 1518 1518 1518 1518 1518 1518 1518 1518 1518 1518 1519 1519 1520 1520 1521 1521 1522 1522 1523 1523 1524 1525 1526 1526 1527 1528 1529 1529 1530 1531
1517 1518 1519 1519 1519 1520 1520 1520 1520 1520 1520 1519 1519 1518 1517 1517 1517 1517 1517 1517 1517 1518 1518 1518 1518 1519 1519 1520 1520 1520 1521 1521 1522 1522 1523 1524 1525 1525 1526 1526 1527 1528 1529
1516 1517 1518 1518 1519 1519 1519 1519 1520 1520 1520 1519 1518 1518 1517 1517 1517 1517 1517 1517 1517 1517 1517 1517 1518 1518 1518 1519 1519 1519 1519 1520 1520 1521 1522 1523 1523 1524 1524 1525 1526 1526 1527
1515 1516 1517 1518 1518 1518 1519 1519 1520 1520 1520 1519 1519 1518 1517 1517 1517 1517 1516 1516 1516 1516 1516 1516 1517 1517 1517 1518 1518 1518 1518 1519 1518 1519 1520 1520 1521 1522 1523 1523 1524 1525 1526
1514 1515 1516 1517 1517 1518 1518 1519 1519 1519 1519 1519 1519 1518 1518 1517 1517 1517 1516 1516 1516 1516 1515 1515 1516 1516 1516 1516 1517 1518 1517 1517 1518 1518 1518 1518 1519 1520 1521 1521 1522 1523 1524
1513 1514 1515 1516 1516 1517 1518 1518 1519 1519 1519 1519 1519 1519 1518 1517 1517 1517 1516 1516 1515 1515 1515 1515 1515 1515 1515 1515 1516 1516 1517 1516 1516 1517 1517 1517 1518 1518 1519 1520 1520 1521 1522
1512 1513 1514 1515 1516 1516 1517 1517 1518 1518 1519 1519 1519 1519 1518 1518 1517 1516 1516 1515 1515 1515 1514 1514 1514 1514 1514 1514 1515 1515 1515 1515 1515 1516 1516 1516 1517 1517 1517 1518 1519 1519 1519
1511 1513 1513 1514 1515 1515 1516 1516 1517 1517 1518 1518 1518 1518 1518 1518 1517 1516 1516 1515 1514 1514 1514 1513 1513 1513 1513 1513 1513 1514 1514 1514 1514 1514 1514 1515 1515 1516 1516 1516 1517 1517 1517